Погода в Починках

Россия / Республика Мордовия     54°12′13″N   45°51′04″E
темп.,
°C
ветер,
м/с
пор.,
м/с
влажн.,
%
обл.,
%
осадки,
мм/ч
давл.,
гПа
погр.,
м
26 февраля, пт
пт2600:00−11ююз119697 0.1 101321
03:00−11з119798 0.3 101421
06:00−12ю119797 0.1 101321
09:00−8юв119597 0.2 101275
12:00−4ююв3496100 0.3 1010246
15:000ю5999100 2.6 1007327
18:00+2юз512100100 1.4 1002360
21:00+2з71599100 2.4 1000460
27 февраля, сб
сб2700:00+1з71497100 0.3 999683
03:00+1з8139298 0.4 999869
06:00−1з61394100 0.3 998632
09:000з71295100 0.9 998779
12:000з61110099 0.7 997757
15:00−6зсз7119499 1.8 999544
18:00−9сз6119497 0.3 1002487
21:00−12ссз6119299 0.5 1005523
28 февраля, вс
вс2800:00−14ссз61193100 0.1 1007456
03:00−17ссз61196100 0.1 1009292
06:00−19ссз41098100 0.0 1011245
09:00−18ссз599593 0.0 1013268
12:00−15ссз589382 0.0 1014385
15:00−13сз579190 0.0 1015487
18:00−17сз469795 0.0 1016117
21:00−18ссз239891 0.0 101926
1 марта, пн
пн100:00−19сз2210092 0.0 102020
03:00−20сз2210092 0.1 102220
06:00−21сз2210095 0.0 102320
09:00−18сз129692 0.0 1025111
12:00−14ссз228880 0.0 1026299
15:00−13зсз238984 0.0 1025293
18:00−17зюз229434 0.0 102520
21:00−17юз239729 0.0 102522
2 марта, вт
вт200:00−16юз349873 0.0 102477
03:00−15юз489786 0.1 1021167
06:00−13юз51295100 0.1 1018264
09:00−8юз71295100 0.9 1015445
12:00−3зюз61095100 0.8 1013491
15:00−1зюз5998100 1.7 1011491
18:00−3зсз489498 0.4 1011146
21:00−5зсз369784 0.4 1011101